Find Starlink 4186

NORAD ID: 52880 Int'l Des: 2022-062 Owner: SPXS Country: US Constellation: starlink operational
LEOCIRCULAR

当前视图

正在加载3D地球...

关于 Starlink 4186

正在加载描述...

即将过境

Passes for default location (London). Set your location on the main map for personalized predictions.

高度历史

Loading altitude history...

两行轨道根数

1 52880U 22062BC 26150.85653463 -.00001066 00000-0 -48883-4 0 9999
2 52880 53.1977 5.2462 0001476 82.4341 277.6818 15.08826350218475
Epoch: May 30, 2026 • Age: 15 hours

当前状态

高度 544.1 km
速度 7.60 km/s
星下点 47.42°N, 68.95°E
发射日期 Jun 17, 2022
运行时间 3.9 years
类型 internet

技术详情

分类 Payload
质量 297.00 kg
干质量 275.00 kg
总质量 297.00 kg
长度 0.20 m
直径 2.80 m
跨度 9.00 m
形状 Box + pan
制造商 SPXS
平台类型 Starlink
阶段状态 In Orbit
所有者/国家 SPXS/US

Most Searched